Temp
3 3 3 3 4 4 5 5 6 7 7 8 9 9 10 10 11 11 11 11 11 11 11 11 11 11 12 12 12 12 13 13 13 14 14 14 13 13 13 13 13 13 13 13 14 14 15 15 14 14 13 14 14 14 13 13 13 14 14 14 14 14 14 14 14 14 14 14 14
3 3 3 3 3 4 4 5 5 6 7 7 8 9 9 10 10 10 10 11 11 10 11 11 11 11 11 12 12 12 12 13 13 13 14 14 14 13 13 13 13 13 13 13 13 14 14 14 14 14 13 13 14 14 13 13 13 13 13 14 14 14 14 14 14 14 14 14 14
3 3 3 3 3 4 4 4 5 5 6 7 7 8 8 9 9 10 10 11 11 10 10 11 11 11 11 12 12 12 12 12 12 13 13 14 14 14 13 13 13 13 13 13 13 13 13 13 14 14 13 13 13 13 13 13 13 13 13 13 13 13 13 13 13 13 13 13 13
2 3 3 3 3 3 4 4 4 5 5 6 7 7 8 8 9 9 10 11 11 11 11 11 11 11 11 11 11 11 12 12 12 12 13 14 14 13 13 13 13 13 13 13 13 13 13 13 13 13 13 13 13 13 13 13 13 13 13 13 13 13 12 12 13 13 13 13 13
2 2 2 3 3 3 3 4 4 5 5 6 6 7 8 8 9 9 10 11 11 11 11 11 11 11 11 11 11 11 11 12 12 12 12 13 13 13 13 13 13 13 13 13 13 13 12 13 13 13 13 13 13 13 13 13 13 13 13 13 13 13 13 13 13 13 13 13 13
2 2 2 2 3 3 3 4 4 5 5 6 6 7 7 8 9 9 10 10 11 11 11 10 10 11 11 11 11 11 11 11 11 11 11 12 13 13 13 13 12 12 13 13 13 13 13 13 13 13 13 13 13 13 13 13 13 13 12 12 12 13 13 13 13 13 13 13 13
2 2 2 2 2 3 3 4 4 5 5 6 6 7 7 8 8 9 10 10 11 11 11 10 10 10 11 11 11 11 11 11 11 11 11 12 12 12 12 12 12 12 12 12 13 13 13 13 13 13 13 13 13 13 13 13 13 13 13 12 12 12 12 12 12 12 13 13 13
1 2 2 2 3 3 3 4 4 5 5 6 6 7 7 8 8 9 9 10 11 11 11 10 10 10 10 10 10 11 11 11 10 10 11 11 12 12 12 12 12 12 12 12 12 13 13 13 13 13 13 13 13 13 13 13 13 13 13 12 12 12 12 11 11 12 12 12 13
1 2 2 2 3 3 4 4 5 5 5 6 6 7 7 8 8 8 9 10 10 11 11 10 10 10 10 10 10 10 10 10 10 9 10 10 11 11 11 11 12 12 12 12 13 13 13 13 13 13 12 12 12 12 12 12 12 13 12 12 12 12 12 12 12 11 12 12 12
1 2 2 2 3 4 4 5 5 6 6 6 7 7 7 8 8 8 9 10 10 11 11 11 10 10 10 10 10 10 10 10 10 9 9 9 10 10 11 11 11 11 12 12 12 13 13 13 12 12 12 12 12 12 12 12 12 12 12 12 12 12 12 12 12 12 12 12 12
1 1 2 2 3 4 4 5 6 6 6 7 7 7 7 7 8 8 8 9 10 10 11 11 10 10 10 10 10 10 10 10 10 10 10 10 10 10 11 11 11 11 11 11 12 12 12 12 12 11 11 11 12 13 13 13 13 12 12 12 12 12 12 12 12 12 12 11 12
1 1 2 2 3 4 4 5 6 6 7 7 7 7 7 7 7 8 8 8 9 10 11 11 11 10 10 10 10 10 10 10 10 10 10 10 10 10 11 11 10 10 10 10 11 11 11 11 11 11 11 10 10 11 12 13 13 13 12 12 11 11 11 11 11 11 11 11 11
1 1 2 2 3 3 4 5 5 6 6 6 6 7 7 7 7 7 7 8 8 9 11 11 11 10 10 10 10 9 9 10 10 10 10 9 9 10 10 10 10 10 10 9 10 10 11 11 11 11 11 11 10 10 10 11 12 13 12 12 11 11 11 11 11 11 11 11 11
1 1 2 2 3 3 4 4 5 6 6 6 6 6 7 7 7 7 7 7 8 9 10 11 11 10 10 10 9 9 9 9 9 9 9 9 9 9 10 10 10 9 9 9 9 9 10 10 10 10 10 10 10 10 10 10 10 11 11 11 11 10 10 10 10 10 11 11 11
1 1 2 2 3 3 3 4 4 5 6 6 6 6 6 7 7 7 7 7 7 8 9 10 11 10 10 9 9 9 9 8 8 8 8 9 9 9 9 9 9 9 9 8 9 9 9 9 9 9 9 9 10 10 10 10 9 10 10 10 10 10 10 9 9 10 10 11 11
1 1 1 2 2 3 3 3 4 4 5 5 6 6 6 6 6 6 7 7 7 7 8 9 10 10 10 10 9 9 8 8 7 7 7 8 8 8 9 9 9 8 8 8 8 8 8 8 8 8 9 9 9 9 9 9 9 9 9 9 9 9 9 9 9 9 9 10 10
1 1 1 2 2 2 3 3 3 4 4 5 5 6 6 6 6 6 6 6 6 6 7 8 9 9 10 10 9 9 8 8 7 7 7 7 8 8 8 8 8 8 8 8 8 8 8 8 8 8 8 8 8 8 8 8 8 8 8 8 9 9 9 8 8 8 8 9 9
0 1 1 1 2 2 2 2 3 3 3 4 4 5 5 5 6 6 6 6 6 6 6 6 7 8 9 10 10 9 8 8 7 7 7 7 7 8 8 8 8 8 8 8 8 8 7 7 7 7 7 7 7 7 7 7 7 7 8 8 8 8 8 8 8 8 7 8 8
0 0 1 1 1 1 2 2 2 2 3 3 4 4 4 5 5 5 5 5 5 6 6 6 6 7 8 9 9 9 9 8 7 7 7 7 7 7 7 7 8 8 8 8 8 8 7 7 7 7 7 7 7 7 7 7 7 7 7 7 7 7 7 7 7 7 7 7 7
0 0 0 1 1 1 1 2 2 2 2 3 3 3 4 4 4 4 5 5 5 5 5 5 6 6 7 8 9 9 9 8 8 7 6 6 6 7 7 7 7 7 7 7 7 7 7 7 7 7 7 7 6 6 6 6 6 6 6 6 6 6 6 6 6 6 6 6 6
-0 0 0 0 0 1 1 1 2 2 2 2 2 3 3 3 4 4 4 4 4 5 5 5 5 5 6 6 7 8 8 8 8 7 6 6 6 6 6 6 7 7 7 7 7 7 7 6 6 6 6 6 6 6 5 5 5 5 5 5 5 5 6 6 6 6 6 6 6
-0 -0 -0 -0 0 0 1 1 1 1 2 2 2 2 2 3 3 3 3 4 4 4 4 4 4 5 5 5 6 7 7 8 8 7 7 6 6 6 6 6 6 6 7 7 7 6 6 6 6 6 6 6 5 5 5 5 5 5 4 4 5 5 5 5 5 5 5 5 5
-0 -0 -0 -0 -0 -0 0 0 1 1 1 1 2 2 2 2 2 3 3 3 3 4 4 4 4 4 4 4 5 5 6 6 7 7 7 6 6 6 5 5 5 5 6 6 6 6 5 5 5 5 5 5 5 5 5 4 4 4 4 4 4 4 5 5 5 5 5 5 5
-1 -1 -1 -1 -0 -0 -0 0 0 1 1 1 1 1 2 2 2 2 3 3 3 3 3 3 3 3 4 4 4 4 5 5 5 6 6 6 6 6 5 5 5 5 5 5 5 5 5 4 4 4 4 4 4 4 4 4 4 4 4 4 4 4 4 4 4 4 4 4 4
-1 -1 -1 -1 -0 -0 -0 0 0 0 1 1 1 1 1 2 2 2 2 3 3 3 3 3 3 3 3 3 3 4 4 4 4 5 5 5 5 5 5 5 5 5 5 5 5 5 5 4 4 4 3 3 3 3 3 3 3 3 3 3 3 3 3 3 3 3 3 3 4
-1 -1 -1 -1 -0 -0 -0 0 0 0 1 1 1 1 1 2 2 2 2 2 2 2 2 2 3 3 3 3 3 3 3 3 4 4 4 4 4 4 4 4 4 4 4 4 4 4 4 4 4 4 3 3 3 3 3 3 3 3 3 3 3 3 3 3 3 3 3 3 3
-1 -1 -1 -1 -0 -0 -0 0 0 1 1 1 1 1 1 2 2 2 2 2 2 2 2 2 2 2 2 3 3 3 3 3 3 3 3 3 3 3 3 4 3 3 4 4 4 4 4 4 4 4 3 3 3 3 3 2 2 2 3 3 3 3 2 2 2 2 2 2 2
-1 -1 -1 -1 -1 -0 -0 0 0 0 1 1 1 1 1 2 2 2 2 2 2 2 2 2 2 2 2 2 2 3 3 3 3 3 3 3 3 3 3 3 3 3 3 3 3 3 3 3 3 3 3 3 3 2 2 2 2 2 2 2 2 2 2 2 2 2 2 2 2
-1 -1 -1 -1 -1 -1 -0 0 0 0 0 1 1 1 1 1 1 1 1 2 2 2 2 1 1 2 2 2 2 2 2 2 2 2 2 2 2 2 2 2 2 2 2 2 2 2 2 3 3 3 3 3 2 2 2 2 2 2 2 2 2 2 2 2 2 2 2 2 2
-1 -1 -1 -1 -1 -1 -0 -0 0 0 0 0 0 0 1 1 1 1 1 1 1 1 1 1 1 1 1 1 1 2 2 2 2 2 2 2 2 2 2 2 2 2 2 2 2 2 2 2 2 2 2 2 2 2 2 2 2 2 2 1 2 2 2 2 2 1 1 1 1
-1 -1 -1 -1 -1 -1 -0 -0 -0 -0 -0 -0 -0 0 0 0 0 0 1 1 1 1 1 1 1 1 1 1 1 1 1 1 1 1 1 2 2 2 2 2 2 2 2 2 2 2 2 2 2 2 2 2 2 2 1 1 1 1 1 1 1 1 1 1 1 1 1 1 1
-1 -1 -1 -1 -1 -1 -1 -1 -1 -0 -0 -0 -0 -0 -0 -0 -0 0 0 0 0 0 0 0 0 1 1 1 1 1 1 1 1 1 1 1 1 1 1 1 2 2 2 2 1 1 1 2 2 2 2 2 2 2 1 1 1 1 1 1 1 1 1 1 1 1 1 1 1
-1 -1 -1 -1 -1 -1 -1 -1 -1 -1 -1 -1 -1 -1 -1 -1 -0 -0 -0 -0 -0 -0 -0 0 0 0 0 0 1 1 1 1 1 1 1 1 1 1 1 1 1 1 1 1 1 1 1 1 1 2 2 2 2 2 1 1 1 1 1 1 1 1 1 1 1 1 1 1 1
-1 -1 -1 -1 -1 -1 -1 -1 -1 -1 -1 -1 -1 -1 -1 -1 -1 -1 -1 -0 -0 -0 -0 -0 -0 -0 0 0 0 0 0 0 0 1 1 1 1 1 1 1 1 1 1 1 1 1 1 1 1 1 2 2 2 1 1 1 0 0 0 0 0 0 0 0 0 0 0 0 0
-1 -1 -1 -1 -1 -1 -1 -1 -1 -1 -1 -1 -1 -1 -1 -1 -1 -1 -1 -1 -1 -1 -1 -1 -0 -0 -0 -0 -0 0 0 0 0 0 0 1 1 1 1 1 0 0 0 0 0 0 1 1 1 1 1 1 1 1 0 0 -0 -0 -0 -0 -0 -0 -0 0 0 0 0 0 0
-1 -1 -1 -1 -1 -1 -1 -1 -1 -1 -1 -1 -1 -1 -1 -1 -1 -1 -1 -1 -1 -1 -1 -1 -1 -1 -1 -1 -0 -0 -0 -0 -0 0 0 0 1 1 1 0 0 0 0 0 -0 0 0 1 1 1 1 1 0 -0 -0 -0 -1 -1 -1 -0 -0 -0 -0 -0 -0 -0 -0 0 0
-1 -1 -1 -1 -1 -1 -1 -1 -1 -1 -1 -1 -1 -1 -1 -1 -1 -1 -1 -1 -1 -1 -1 -1 -1 -1 -1 -1 -1 -1 -0 -0 -0 -0 0 0 0 0 0 0 -0 -0 -0 -0 -0 -0 -0 0 0 0 0 0 -0 -1 -1 -1 -1 -1 -1 -1 -1 -1 -1 -0 -0 -0 -0 -0 -0
-1 -1 -1 -1 -1 -1 -1 -1 -1 -1 -1 -1 -1 -1 -1 -1 -1 -1 -1 -1 -1 -1 -1 -1 -1 -1 -1 -1 -1 -1 -1 -0 -0 -0 -0 -0 0 0 -0 -0 -0 -0 -1 -1 -1 -1 -0 -0 -0 0 -0 -0 -1 -1 -1 -1 -1 -1 -1 -1 -1 -1 -1 -1 -1 -1 -1 -1 -0
-1 -1 -1 -1 -1 -1 -1 -1 -1 -1 -1 -1 -1 -1 -1 -1 -1 -1 -1 -1 -1 -1 -1 -1 -1 -1 -1 -1 -1 -1 -1 -1 -1 -1 -1 -1 -0 -0 -0 -0 -0 -1 -1 -1 -1 -1 -1 -1 -0 -0 -0 -1 -1 -1 -1 -1 -1 -1 -1 -2 -2 -2 -1 -1 -1 -1 -1 -1 -1
-1 -1 -1 -1 -1 -1 -1 -1 -1 -1 -1 -1 -1 -1 -1 -1 -1 -1 -1 -1 -1 -1 -1 -1 -1 -1 -1 -1 -1 -1 -1 -1 -1 -1 -1 -1 -1 -1 -1 -0 -1 -1 -1 -1 -1 -1 -1 -1 -1 -1 -1 -1 -1 -1 -1 -1 -1 -1 -2 -2 -2 -2 -2 -2 -2 -2 -2 -2 -2
-1 -1 -1 -1 -1 -1 -1 -1 -1 -1 -1 -1 -1 -1 -1 -1 -1 -1 -1 -1 -1 -1 -1 -1 -1 -1 -1 -1 -1 -1 -1 -2 -2 -2 -1 -1 -1 -1 -1 -1 -1 -1 -1 -1 -1 -1 -1 -1 -1 -1 -1 -1 -1 -1 -1 -1 -1 -1 -2 -2 -2 -2 -2 -2 -2 -2 -2 -2 -1
Height
759 758 757 757 756 756 755 755 754 754 754 753 753 753 752 752 752 751 750 750 749 749 748 748 747 747 746 746 746 746 745 745 745 744 744 743 742 742 741 741 741 741 742 745 747 748 748 747 747 747 747 747 747 746 746 745 744 743 742 742 743 744 746 747 747 748 750 750 751
758 757 757 756 756 755 754 754 753 753 753 753 752 752 752 752 751 751 750 749 749 749 748 748 747 747 746 746 746 746 746 745 745 745 744 743 742 742 741 741 741 741 741 744 747 748 748 748 748 748 749 750 749 747 746 746 745 743 742 741 742 743 744 745 746 748 749 749 750
757 757 756 756 755 754 754 753 752 752 752 752 751 751 751 751 751 750 749 749 749 748 748 748 747 747 746 746 746 746 746 746 745 745 744 743 742 742 741 742 741 741 741 743 747 749 750 750 750 750 751 751 750 749 747 746 746 744 743 743 742 743 743 745 746 746 747 748 749
756 756 755 755 754 753 753 752 751 751 751 751 751 750 750 750 750 749 749 748 748 748 748 747 747 746 746 746 747 747 746 746 746 745 745 744 743 742 742 742 742 741 741 743 747 750 751 751 752 752 752 752 751 750 748 747 746 745 745 745 744 744 744 745 746 747 747 748 748
756 755 754 754 753 752 752 751 751 750 750 750 750 749 749 749 749 749 748 748 748 748 748 747 747 746 746 746 746 747 747 746 746 746 745 744 743 742 742 742 742 741 741 742 747 750 752 753 753 753 753 752 751 750 748 747 746 746 745 745 745 745 745 746 747 749 749 750 750
754 754 753 752 752 751 751 750 749 749 749 749 748 748 748 749 748 748 748 747 747 747 747 747 746 746 746 746 746 746 746 746 746 746 745 744 744 743 743 743 743 741 740 741 746 751 753 753 754 753 753 752 751 750 749 748 747 747 746 746 745 746 746 748 749 750 751 751 752
753 752 752 751 751 750 750 749 748 748 748 747 747 747 747 748 748 747 747 747 747 747 747 746 746 746 746 746 746 746 746 746 746 745 745 745 744 744 743 743 743 742 741 741 746 750 752 753 753 753 753 752 751 750 749 749 748 748 747 747 747 747 748 749 750 751 751 752 752
751 751 751 750 750 749 748 748 747 747 747 746 746 746 746 747 747 747 746 746 746 746 746 746 746 746 746 746 746 746 746 746 745 745 745 745 745 745 744 744 743 742 742 742 745 748 751 752 753 753 753 752 752 751 750 750 749 749 748 749 749 749 750 750 751 752 752 753 753
751 750 749 749 748 748 747 746 746 746 746 745 745 746 746 746 746 746 746 746 746 746 746 746 746 746 745 745 745 745 745 745 746 746 746 745 745 745 744 744 743 743 743 743 745 747 749 750 751 751 752 752 752 752 751 751 750 750 750 750 750 750 751 751 752 753 753 754 754
750 749 748 747 747 746 746 745 745 745 745 745 745 745 745 745 745 745 745 745 745 745 746 746 746 746 745 745 745 745 746 746 746 746 745 745 745 744 744 743 743 743 743 744 745 746 747 748 749 750 751 751 752 753 753 752 751 751 751 751 751 751 752 752 753 754 754 755 755
749 748 747 746 746 745 745 744 744 744 744 744 744 744 744 744 744 744 745 745 745 745 745 746 745 745 745 745 745 746 746 746 746 746 745 745 744 744 744 743 743 743 743 744 745 746 746 747 748 749 749 749 751 752 753 753 752 752 752 752 752 753 753 753 754 754 755 756 756
748 747 746 746 745 745 744 744 743 743 743 743 743 743 743 743 744 744 744 744 744 744 744 745 745 745 745 745 745 746 746 746 746 746 746 745 744 744 744 743 743 743 744 744 745 746 746 747 748 748 749 749 749 750 752 753 753 753 753 754 754 754 754 754 754 755 756 756 757
748 747 746 745 745 744 744 743 743 742 742 742 742 742 742 743 743 743 743 743 743 743 744 744 744 745 745 746 746 746 746 746 746 746 746 746 745 744 744 744 744 744 744 745 745 746 746 746 747 747 748 749 749 750 751 752 753 753 754 754 755 755 755 755 755 756 756 757 757
747 746 746 745 744 744 743 743 742 742 741 741 741 742 742 742 742 743 743 743 743 743 743 743 744 745 746 746 746 746 746 746 746 746 746 746 745 744 744 744 744 745 745 745 745 745 746 746 747 747 748 748 749 750 751 752 752 753 753 754 755 755 755 755 756 756 756 757 758
747 746 745 745 744 743 743 742 742 741 741 741 741 741 741 742 742 742 742 742 742 742 743 743 744 745 746 746 746 746 746 746 746 746 746 746 745 745 745 745 745 746 746 746 746 746 746 747 748 748 748 748 749 751 752 753 753 754 754 754 754 755 756 756 756 756 757 757 758
746 746 745 744 744 743 742 742 741 741 741 741 741 741 741 741 742 742 742 742 742 742 742 743 743 744 745 746 746 746 746 746 746 746 746 746 745 745 745 746 746 746 747 746 746 746 747 748 749 749 749 750 750 751 752 753 754 754 755 755 755 755 756 756 756 757 757 758 759
746 746 745 744 744 743 742 742 741 741 741 741 741 741 741 741 741 742 742 742 742 742 742 742 743 744 745 746 746 746 746 747 747 746 746 746 746 746 746 746 747 747 747 747 747 748 748 749 750 750 751 751 751 752 752 753 754 755 755 755 755 756 756 757 757 758 758 759 759
746 745 745 744 744 743 742 742 741 741 741 741 741 741 741 741 741 741 742 742 742 742 742 742 743 743 744 745 746 746 747 747 747 747 747 746 746 746 746 747 747 748 748 749 749 750 750 750 751 751 751 752 752 752 753 754 755 755 755 756 756 756 756 757 758 758 759 759 760
746 745 745 744 744 743 743 742 741 741 741 741 741 741 741 741 741 741 742 742 742 742 742 742 742 743 744 744 745 746 747 747 747 747 747 747 747 747 747 747 748 748 749 749 750 751 751 752 752 752 752 753 753 753 754 754 755 756 756 756 756 756 757 757 758 759 759 760 760
746 746 745 744 744 743 743 742 742 741 741 741 741 741 741 741 741 741 742 742 742 743 743 743 743 743 743 744 745 746 746 747 747 748 748 748 748 747 747 747 748 748 749 750 751 751 752 753 753 753 753 754 754 754 755 755 756 756 756 757 757 757 757 757 758 759 760 760 761
746 746 745 744 744 743 743 743 742 742 741 741 741 741 741 741 741 741 742 742 742 743 743 743 743 743 743 744 744 745 746 747 747 748 748 748 748 748 748 748 748 749 749 750 751 752 753 754 754 754 754 754 755 755 756 756 756 757 757 757 757 757 758 758 759 759 760 761 761
746 746 745 745 744 744 743 743 742 742 742 741 741 741 741 741 741 742 742 742 743 743 743 743 743 744 744 744 744 745 745 746 747 748 748 748 749 749 749 749 749 749 750 751 751 752 753 754 755 755 755 755 756 756 757 757 757 758 758 758 758 758 759 759 760 761 761 762 763
746 746 745 745 745 744 744 743 743 742 742 742 742 742 742 742 742 742 742 743 743 743 744 744 744 744 744 745 745 745 745 746 747 747 748 749 749 749 750 750 750 750 751 751 752 753 754 755 756 756 756 756 756 757 758 758 759 759 759 759 759 760 760 761 761 762 763 763 764
746 746 746 745 745 745 744 744 743 743 743 742 742 742 742 742 742 743 743 743 744 744 744 745 745 745 745 745 746 746 746 746 747 747 748 749 749 750 750 750 751 751 751 752 752 753 754 755 756 757 757 757 758 758 759 760 760 760 760 760 761 761 762 762 763 764 764 765 766
747 746 746 746 746 745 745 745 744 744 743 743 743 743 743 743 743 743 743 744 744 745 745 745 746 746 746 746 746 746 746 747 747 748 748 749 750 750 750 751 751 751 752 752 753 754 754 755 756 757 758 758 759 759 760 761 761 762 762 762 762 762 763 764 765 765 766 766 767
747 747 747 746 746 746 746 745 745 744 744 744 744 743 743 743 743 744 744 744 745 745 746 746 746 746 746 747 747 747 747 747 748 748 749 750 750 750 751 751 752 752 753 753 754 755 755 756 756 757 758 759 760 760 761 762 762 763 763 764 764 764 764 765 766 766 767 767 768
748 748 747 747 747 747 746 746 746 745 745 745 744 744 744 744 744 744 744 745 745 746 746 746 746 747 747 747 747 748 748 748 749 749 750 750 750 751 751 752 752 753 754 754 755 756 756 756 757 758 758 759 760 761 761 762 763 764 764 765 765 765 766 766 766 767 767 768 768
749 748 748 748 748 747 747 747 746 746 746 746 745 745 745 745 745 745 745 745 746 746 746 747 747 747 748 748 748 748 749 749 749 750 750 751 751 751 752 752 753 754 754 755 756 756 757 757 758 758 759 760 760 761 762 763 764 765 765 766 766 766 767 767 767 767 768 768 769
750 749 749 749 748 748 748 747 747 747 747 747 746 746 746 746 746 746 746 746 746 747 747 747 748 748 748 749 749 749 750 750 750 751 751 751 752 752 753 753 754 755 755 756 756 757 757 758 758 759 760 760 761 762 763 764 765 766 766 766 767 767 767 768 768 768 769 769 769
750 750 750 750 749 749 749 748 748 748 748 748 747 747 747 747 747 747 747 747 747 747 748 748 749 749 749 750 750 750 751 751 751 752 752 752 753 753 754 754 755 756 756 756 757 757 758 759 759 760 760 761 761 762 763 764 765 766 766 767 767 768 768 768 769 769 769 770 770
751 751 751 751 750 750 750 749 749 749 749 749 749 748 748 748 748 748 748 748 748 748 749 749 750 750 750 751 751 751 751 752 752 753 753 754 754 754 755 755 756 756 757 757 758 758 759 759 760 760 761 761 761 762 763 764 765 766 766 767 768 768 768 769 769 770 770 771 771
751 751 751 751 751 751 751 750 750 750 750 750 750 749 749 749 749 749 749 749 750 750 750 750 751 751 751 751 752 752 753 753 754 754 755 755 756 756 756 756 757 757 758 758 758 759 759 760 760 761 761 762 762 763 764 764 765 766 767 767 768 768 769 769 770 771 771 771 772
752 752 752 752 752 751 751 751 751 751 751 751 751 750 750 750 750 751 751 751 751 751 751 752 752 752 752 753 753 754 754 755 755 756 756 756 756 757 757 757 758 758 759 759 759 760 760 760 761 761 762 762 763 764 764 765 766 766 767 768 769 769 770 770 771 771 772 772 773
753 752 752 752 752 752 752 752 752 752 752 751 751 751 751 751 751 751 752 752 752 752 753 753 753 754 754 755 755 755 756 756 757 757 757 758 758 758 758 759 759 760 760 760 760 760 761 761 761 762 762 763 764 765 765 766 766 767 767 768 769 770 770 771 771 772 772 773 774
753 753 753 753 753 753 753 753 753 753 753 753 752 752 752 752 752 753 753 753 753 753 754 754 755 755 756 756 757 757 758 758 758 759 759 759 760 760 760 760 760 761 761 761 761 761 761 761 762 763 763 764 765 765 766 766 767 767 768 769 769 770 771 771 772 772 773 774 774
753 753 753 753 753 753 753 753 754 754 754 753 754 754 754 754 754 754 754 754 755 755 755 756 756 757 757 758 758 759 759 760 760 760 761 761 761 761 761 761 761 762 762 762 762 762 762 762 763 763 764 765 765 766 767 767 768 768 769 770 770 771 771 772 772 773 774 775 775
754 754 754 754 754 754 754 754 754 754 754 754 754 755 755 755 755 755 756 756 756 756 757 757 758 758 759 759 760 761 761 761 761 762 762 762 762 762 762 762 763 763 763 763 763 763 763 764 764 764 765 766 766 767 768 768 769 770 770 771 771 772 772 773 774 774 775 776 776
754 754 754 754 754 754 754 754 754 755 755 755 755 755 756 756 756 756 757 757 757 758 758 759 759 760 760 761 761 761 762 762 763 763 763 763 763 763 764 764 764 764 764 764 764 764 764 765 765 766 766 766 767 768 769 769 770 771 771 771 772 773 773 774 775 776 776 776 776
754 755 754 754 754 755 755 755 755 755 755 756 756 756 756 757 757 757 758 758 759 759 759 760 760 761 761 761 762 762 763 763 764 764 764 764 765 765 765 765 765 765 765 765 765 765 765 766 766 766 767 767 768 769 770 770 771 771 772 772 773 774 774 775 776 776 777 777 777
755 755 755 755 755 755 755 755 755 756 756 756 756 756 757 757 758 758 759 759 760 760 760 761 761 762 762 762 763 763 764 764 765 765 765 765 765 766 766 766 766 766 766 766 766 766 766 767 767 767 768 769 769 770 770 771 771 772 772 773 774 774 775 776 776 777 778 778 778
755 755 755 755 755 755 756 756 756 756 756 756 757 757 757 758 758 759 759 760 761 761 761 762 762 763 763 764 764 764 765 765 765 766 766 766 766 766 766 766 767 767 767 767 767 767 767 768 768 769 769 770 770 771 771 772 772 773 773 774 775 775 776 776 777 778 778 779 779
Wind_Speed
11 10 10 10 9 9 9 9 9 9 9 8 8 8 7 6 5 5 4 5 8 8 7 8 9 7 6 6 7 9 10 11 11 11 11 12 13 15 15 15 15 16 16 14 11 7 6 6 7 7 7 7 8 9 8 5 2 8 15 19 21 22 23 23 24 25 24 23 22
11 11 11 10 10 9 9 9 9 9 9 9 9 9 8 7 6 5 4 3 6 8 7 8 9 9 7 7 7 9 10 11 11 11 12 12 13 13 13 13 14 15 16 14 10 5 4 5 4 4 5 6 7 10 11 10 8 8 9 13 15 18 19 20 20 22 23 23 23
11 11 11 11 10 9 9 9 10 10 10 10 10 10 9 8 7 6 5 2 4 7 7 7 8 9 9 8 8 8 9 11 11 12 13 13 14 14 14 14 14 15 15 14 10 4 3 5 4 2 4 5 6 9 12 13 12 12 13 13 14 15 16 16 17 18 20 22 23
11 11 11 11 11 11 11 11 11 11 11 11 11 10 10 8 8 7 6 3 3 5 6 6 7 8 9 9 8 8 8 10 11 12 14 15 15 15 15 15 16 16 17 15 10 4 2 5 4 1 3 6 6 8 10 13 14 15 15 15 15 16 18 18 18 18 18 19 21
11 11 11 12 12 12 12 12 12 12 11 11 11 10 10 9 9 8 7 5 2 4 6 6 6 8 9 9 9 9 10 10 11 12 13 15 16 17 17 17 18 19 19 17 12 6 1 3 4 1 2 6 8 9 10 12 15 17 17 17 17 17 18 18 17 16 15 15 17
12 12 12 13 13 13 13 12 12 12 11 11 11 11 10 9 9 9 9 7 3 3 6 7 6 7 9 10 10 10 11 12 13 13 13 15 16 17 18 19 19 20 21 20 16 10 5 1 2 2 2 4 8 10 11 11 13 15 17 18 19 19 18 18 18 17 16 16 16
13 13 13 13 13 13 13 13 12 11 11 11 12 12 11 10 10 11 10 8 5 3 6 7 7 7 9 10 10 10 11 12 13 14 13 14 16 17 18 19 20 20 21 22 19 14 10 7 4 3 3 4 6 9 11 11 13 14 15 16 17 17 18 18 18 19 19 19 18
13 14 14 14 14 14 14 13 12 11 11 12 12 12 12 10 11 12 11 9 6 4 4 7 6 6 8 10 10 10 11 12 13 13 13 14 15 16 17 19 19 20 21 21 20 18 16 13 10 7 4 3 4 6 9 10 11 12 13 14 14 14 15 16 18 18 19 19 18
14 14 14 14 13 13 13 12 11 11 11 12 12 12 11 11 12 13 12 10 8 5 3 6 6 5 7 9 10 11 11 11 11 11 12 13 14 15 16 17 18 19 19 19 19 19 18 18 16 14 10 6 3 3 4 7 8 10 12 12 12 12 13 14 16 17 17 17 17
14 14 14 14 13 12 11 11 10 10 11 11 11 11 11 12 13 14 13 11 9 6 5 5 5 5 6 8 9 9 9 9 9 10 10 12 12 13 14 15 16 16 17 17 16 17 18 18 18 18 17 13 8 4 1 2 5 7 10 11 11 12 12 13 13 14 15 15 16
14 14 14 13 13 11 10 9 9 8 9 10 10 11 11 13 14 14 13 11 10 8 6 5 5 5 5 7 8 7 7 6 7 7 8 9 10 10 11 11 13 14 15 15 15 15 16 16 17 17 17 17 15 11 6 3 2 4 8 9 11 11 12 13 12 12 12 13 14
13 13 13 12 11 9 8 7 6 7 8 10 10 11 12 13 14 14 13 12 11 9 8 6 6 6 6 6 7 7 6 5 5 6 6 7 8 9 8 8 9 11 12 13 14 15 15 15 16 15 15 14 15 15 13 10 7 6 7 9 10 12 13 13 12 11 10 10 11
12 12 12 11 9 7 6 4 4 7 9 10 11 12 12 13 14 14 13 12 11 11 9 7 7 7 7 7 6 6 6 6 6 6 6 6 7 8 7 7 7 9 10 11 13 14 14 15 15 15 14 13 13 13 14 14 13 12 11 11 12 12 13 13 12 11 10 9 10
11 10 10 9 7 5 4 2 5 8 9 10 11 11 12 13 13 13 13 12 12 11 10 9 8 7 7 8 8 6 5 5 6 7 7 7 7 8 7 7 7 8 9 11 12 13 13 14 14 14 14 13 12 12 12 13 14 15 15 14 13 13 12 12 12 11 11 11 10
9 8 8 7 5 4 3 2 5 7 9 10 11 11 12 13 13 13 13 12 12 12 11 11 10 8 8 8 8 6 4 4 6 7 8 8 8 8 8 8 8 9 10 11 12 13 13 13 13 13 13 14 14 13 13 13 14 14 15 15 14 13 12 11 11 11 11 12 12
8 7 6 5 4 3 3 3 5 7 9 10 11 11 12 12 13 13 13 13 13 13 12 12 12 10 8 8 8 6 4 3 5 7 8 9 9 9 9 9 9 10 11 12 13 13 13 13 13 13 13 14 14 14 14 13 13 13 13 13 13 13 12 11 11 11 11 12 13
6 5 4 3 2 2 3 4 5 7 9 10 10 11 12 12 13 13 13 13 13 13 13 13 13 12 10 9 8 6 4 4 5 7 8 9 9 10 10 10 10 10 11 12 12 13 13 13 13 13 13 14 14 14 14 14 14 13 13 13 13 12 12 11 11 11 11 13 14
5 4 3 2 1 2 3 4 5 7 8 9 10 11 11 12 12 12 13 13 13 13 13 14 14 14 12 11 9 7 5 5 6 7 8 9 10 10 10 10 10 11 11 11 11 12 12 12 12 13 13 13 14 14 14 14 14 13 13 13 13 13 12 12 12 12 12 13 14
4 3 2 1 0 1 3 4 5 6 7 8 9 10 11 11 12 12 12 13 13 13 14 14 14 14 14 13 11 10 7 5 7 8 9 10 10 11 11 11 11 11 11 10 10 10 10 11 11 11 12 13 13 13 14 14 14 14 13 13 13 13 13 13 13 13 13 14 15
4 3 3 1 1 2 3 4 5 6 7 8 9 9 10 10 11 11 11 12 12 13 14 14 14 15 15 14 14 12 10 7 7 9 10 10 11 11 12 12 12 12 11 11 10 10 9 9 10 10 11 12 12 13 13 13 13 13 13 13 13 14 14 14 14 15 15 15 15
3 3 2 2 2 3 4 5 6 6 7 8 8 9 10 10 10 11 11 11 12 12 13 14 14 15 15 15 15 14 12 10 8 9 10 11 11 12 12 13 13 12 12 11 11 10 9 9 9 10 10 11 12 12 12 13 13 13 13 13 13 14 14 15 15 15 16 16 16
3 2 2 2 2 3 4 5 6 7 8 8 9 10 10 10 11 11 11 11 12 12 12 13 14 14 15 15 16 16 15 13 11 10 11 11 12 12 13 13 13 13 13 12 11 11 10 10 10 10 10 11 12 12 12 13 13 14 14 14 15 15 15 15 16 16 16 16 16
3 2 2 2 3 4 5 6 7 8 9 9 10 10 11 11 11 11 11 12 12 12 12 12 13 13 14 15 15 16 16 15 14 12 12 12 12 13 13 13 13 13 13 13 12 12 11 11 10 10 11 11 12 13 13 13 14 15 16 16 17 17 17 17 17 17 17 16 16
2 1 2 3 4 5 6 7 8 9 10 11 11 11 12 12 12 12 12 12 12 12 12 12 12 12 13 14 14 15 16 16 15 14 13 13 13 13 13 13 13 13 13 12 12 12 12 12 12 11 11 12 13 13 13 14 15 16 17 18 19 19 18 18 17 17 16 16 16
1 2 3 5 5 6 7 8 9 10 11 12 12 12 13 13 13 13 13 12 12 12 12 12 12 12 13 13 14 15 15 15 15 15 15 14 14 13 13 13 13 12 12 12 11 11 12 12 13 13 13 14 14 14 14 14 15 16 17 18 19 19 19 18 17 16 16 15 15
3 4 5 6 6 7 8 9 10 11 12 12 13 13 13 13 13 13 13 13 13 13 13 13 13 13 13 13 13 14 14 15 15 15 14 14 14 13 13 13 12 12 11 11 10 10 11 12 13 14 15 15 15 15 15 15 16 16 17 17 18 18 18 18 17 17 16 16 16
4 4 5 6 7 8 9 10 11 12 13 13 13 14 14 14 14 14 14 14 14 13 13 13 13 13 13 13 13 13 14 14 14 14 14 14 14 13 13 12 12 11 10 9 9 9 10 11 13 14 16 16 17 17 17 16 17 17 17 17 17 18 18 18 18 17 17 16 16
4 5 6 7 7 8 9 10 11 12 13 13 14 14 14 14 14 14 14 14 14 14 14 14 13 13 13 13 13 13 14 14 14 14 14 14 14 13 13 12 12 11 10 9 8 9 10 11 13 14 16 17 18 18 18 17 17 17 17 17 17 17 18 18 18 17 17 17 17
5 6 7 8 8 9 9 10 11 12 12 13 13 13 14 14 14 14 14 15 15 15 15 14 14 14 14 15 15 15 15 14 14 14 14 14 14 14 13 12 12 11 10 9 9 9 10 11 13 14 16 17 18 18 17 16 16 16 16 16 16 16 17 17 17 17 17 17 17
6 7 7 8 8 8 9 10 11 12 12 12 13 13 13 14 14 14 14 14 15 15 15 15 15 15 15 16 16 16 15 15 15 15 15 15 14 13 12 12 11 11 10 9 9 9 10 11 12 13 15 17 17 17 16 15 15 15 15 15 16 16 16 16 17 17 16 16 16
6 7 7 7 8 8 8 9 10 11 11 12 12 13 13 14 14 14 14 14 14 14 14 15 15 15 15 15 15 15 15 14 14 14 14 14 14 13 12 12 11 11 10 9 9 9 9 10 11 13 15 16 17 16 16 15 15 15 15 15 15 16 16 16 16 16 16 15 15
6 6 7 7 7 8 8 9 10 10 11 12 12 13 13 14 14 14 14 14 14 14 15 15 15 15 15 14 14 14 14 13 13 13 13 13 13 13 12 12 11 10 9 9 9 9 9 10 11 12 14 16 16 16 16 15 15 15 15 15 15 15 15 15 15 15 15 14 14
6 7 7 7 7 8 8 9 9 10 11 12 13 13 13 14 14 14 14 14 14 14 14 14 14 14 14 14 13 13 13 12 12 12 12 12 12 12 11 11 10 9 9 9 8 8 8 9 10 12 14 15 15 15 15 15 15 15 15 15 15 14 15 15 15 14 14 13 13
6 7 7 7 8 8 8 9 9 10 12 12 13 13 14 14 14 14 14 14 14 14 14 14 14 14 14 13 13 13 12 12 12 11 11 10 10 10 10 9 9 9 8 8 8 8 8 9 10 12 13 14 14 14 14 15 15 15 15 15 15 15 15 15 15 14 14 13 13
7 7 8 8 8 9 9 9 9 10 11 12 13 13 13 14 14 14 14 15 15 15 15 15 15 14 14 13 13 12 11 11 10 10 9 9 9 9 9 9 9 8 8 8 8 8 8 9 10 11 13 13 14 14 14 14 15 15 16 16 16 16 16 16 16 15 14 14 13
7 8 8 8 9 9 9 9 9 10 11 12 12 12 12 12 13 14 14 15 15 16 15 15 15 14 14 13 12 12 11 11 10 10 9 9 9 9 9 9 9 9 8 8 8 8 8 9 10 12 13 14 14 14 15 15 15 16 16 16 16 16 16 16 15 15 14 13 12
7 8 8 9 9 9 9 9 9 10 10 11 11 11 12 12 12 13 14 15 15 15 15 14 14 14 13 13 12 12 11 10 10 10 9 9 9 9 10 10 10 9 8 8 8 8 9 9 11 12 14 15 15 15 15 15 15 15 16 16 16 15 15 15 14 13 12 12 11
7 8 8 8 8 8 8 9 9 10 10 11 11 11 12 12 12 13 13 14 14 14 14 14 14 13 13 13 12 11 11 10 10 9 9 9 9 9 10 10 9 9 8 8 8 8 9 10 12 14 15 16 15 15 14 14 14 15 15 15 15 14 14 13 13 12 11 11 10
8 7 8 9 9 9 9 9 9 10 10 11 11 11 11 12 12 12 13 14 14 14 14 14 14 13 13 12 12 11 11 10 10 9 9 9 9 9 9 9 9 9 8 8 8 9 10 11 13 15 15 15 14 13 13 13 14 14 14 14 14 14 13 13 12 11 11 10 10
8 8 8 8 9 9 10 10 10 10 11 12 12 12 12 12 12 13 14 14 14 14 14 14 14 13 13 13 12 12 11 10 10 9 9 9 9 9 9 9 9 9 8 8 8 8 10 12 13 15 15 14 13 13 13 13 13 13 13 13 13 13 13 12 11 11 10 10 10
9 9 8 8 8 9 10 11 11 11 12 13 13 13 14 14 14 15 15 14 14 14 14 14 13 12 12 12 12 12 11 11 10 9 9 9 9 8 8 8 9 8 8 8 8 8 10 11 13 14 14 13 12 12 12 12 12 12 12 12 12 12 11 11 11 10 9 9 8
Wind_Direction
313 311 308 304 299 294 290 285 280 278 277 277 277 278 281 281 280 273 287 336 350 338 300 258 241 228 210 187 168 155 146 139 135 132 129 124 115 109 105 101 98 94 90 83 74 55 27 20 29 36 47 66 79 80 75 70 138 193 197 196 196 197 198 199 201 203 202 199 192
311 309 307 303 299 294 288 283 280 276 272 270 273 275 275 274 272 263 266 326 348 343 320 279 253 238 224 210 191 171 157 150 147 144 139 133 127 121 116 110 105 102 98 93 85 62 8 352 11 39 55 65 80 90 90 84 85 108 137 156 169 178 185 189 196 195 191 188 185
309 308 306 302 298 294 290 286 280 274 269 268 269 270 269 267 263 252 247 283 336 336 320 286 259 243 231 221 211 194 175 162 157 154 151 146 141 135 128 121 114 108 104 103 100 85 337 322 331 30 82 85 85 96 102 100 95 94 99 109 125 139 149 155 161 164 163 164 167
307 307 304 300 296 292 289 285 280 274 269 267 265 265 263 259 252 243 235 233 308 318 306 281 258 244 235 229 227 221 204 183 168 161 157 155 150 144 138 132 125 116 110 108 110 110 333 319 316 343 105 101 99 102 107 111 110 107 104 103 108 114 120 126 134 141 145 146 152
306 305 303 299 297 293 289 285 281 276 271 266 263 261 257 252 244 236 226 213 250 298 295 283 262 244 235 234 235 235 223 201 178 165 159 157 154 151 147 142 134 126 118 114 116 119 59 328 325 343 104 108 109 107 107 109 113 113 111 110 108 108 110 117 128 140 148 150 152
305 304 303 301 298 295 291 287 283 277 270 263 258 254 251 247 240 233 223 205 207 277 289 287 269 244 233 233 237 235 220 196 174 162 157 157 156 154 152 147 141 132 125 121 124 128 129 94 15 19 67 99 108 108 108 108 111 111 110 110 110 110 111 117 128 139 148 153 154
304 303 302 301 299 296 293 289 284 276 268 260 253 247 243 242 237 231 221 201 191 242 282 288 274 247 229 226 227 222 206 183 167 157 153 154 155 155 152 149 143 135 129 127 131 137 142 137 118 88 74 87 105 110 112 113 112 110 107 106 108 110 113 117 123 130 136 141 143
305 304 304 303 301 297 293 288 282 274 265 257 247 240 237 237 234 228 218 199 185 206 271 288 277 246 219 210 204 197 187 174 162 154 150 150 150 150 149 148 145 139 135 134 138 144 148 145 138 126 110 93 99 108 113 115 116 114 111 109 108 109 111 114 118 121 125 128 129
304 305 306 305 303 298 292 286 278 269 260 252 242 236 234 233 230 226 217 200 181 185 244 277 275 241 206 190 180 174 171 166 160 153 149 146 147 147 146 145 145 144 143 144 149 153 155 152 146 141 135 128 113 104 110 115 117 117 116 115 114 112 112 112 114 117 119 122 123
304 306 307 306 303 297 291 285 276 265 254 245 237 232 230 227 225 222 215 199 179 177 210 251 263 234 196 178 170 165 163 162 160 156 150 145 144 144 143 143 145 146 147 150 157 163 166 163 156 149 143 141 140 143 150 127 116 116 117 118 118 119 118 116 115 115 117 120 123
305 306 307 305 302 298 294 291 276 255 239 230 225 222 220 219 219 218 213 198 181 175 189 226 249 241 208 186 178 172 166 159 158 158 153 144 141 140 140 141 142 145 147 150 156 163 170 171 167 160 152 146 146 149 161 188 170 131 124 123 125 127 126 123 120 117 116 118 122
306 306 305 303 300 298 298 294 259 225 213 211 211 211 210 211 213 214 210 198 185 174 177 204 235 249 241 216 198 187 178 166 161 163 158 141 132 131 133 135 138 141 144 148 153 158 163 166 167 163 156 148 146 149 157 170 181 172 151 140 136 134 132 128 126 124 121 121 123
306 305 303 301 295 294 295 283 215 197 199 204 205 205 205 206 209 208 204 196 185 176 175 193 221 245 258 253 236 215 194 181 178 178 169 147 129 124 126 128 133 136 138 142 147 151 155 158 161 160 157 153 146 145 149 157 165 168 164 155 147 141 136 134 133 133 132 131 131
304 304 303 299 291 286 282 253 189 188 195 201 202 203 204 205 206 205 200 192 184 177 178 189 208 232 256 268 264 249 219 190 180 174 166 153 139 129 125 125 130 133 134 135 139 143 146 149 152 153 153 151 148 145 144 147 151 155 156 154 150 145 139 136 136 138 140 141 141
307 306 304 299 285 268 243 198 176 183 192 198 200 203 205 206 206 205 200 192 183 178 178 187 199 218 244 266 271 266 241 191 169 161 155 147 140 132 127 127 130 133 132 132 134 137 139 142 145 146 146 145 145 145 144 144 144 144 146 147 146 144 140 136 136 138 141 144 144
310 310 309 304 281 249 216 181 170 177 187 193 198 202 204 206 207 206 201 194 186 179 176 181 191 205 226 251 264 264 241 181 155 147 143 139 134 131 129 130 131 132 132 131 131 133 136 140 141 141 141 140 140 141 142 142 141 140 139 140 141 140 138 135 135 136 139 142 142
315 315 317 316 283 234 205 181 168 171 179 188 195 198 201 204 206 206 202 197 189 180 173 174 181 191 204 224 246 253 230 175 153 142 136 133 131 130 130 131 132 132 131 130 128 130 134 137 139 140 139 138 137 137 139 140 140 140 139 139 138 136 135 135 134 135 136 137 137
322 324 328 333 297 211 190 177 167 165 169 178 186 192 196 199 201 202 202 198 191 182 173 168 171 178 189 202 222 235 227 180 154 142 134 130 129 130 131 132 132 131 129 127 127 128 131 134 137 138 138 137 136 136 137 138 139 139 139 137 136 134 134 134 133 132 132 133 132
332 339 348 1 47 160 168 167 161 159 162 169 177 184 189 192 195 196 196 195 190 183 174 167 165 170 177 187 201 215 218 186 156 142 134 130 129 130 131 131 131 130 129 128 128 129 131 134 136 137 137 136 134 134 134 135 135 135 135 134 133 133 134 134 133 132 131 131 131
341 350 359 21 95 134 148 153 154 156 159 163 168 173 178 183 187 187 186 186 186 182 175 168 164 163 167 175 184 193 200 192 162 143 134 130 129 129 129 129 130 130 130 130 130 131 133 134 136 136 135 134 132 131 130 130 131 131 131 131 131 132 133 134 133 133 133 132 131
351 0 12 36 94 126 138 147 152 155 157 157 158 161 164 170 173 174 174 176 178 177 173 167 163 160 159 163 168 174 181 186 170 149 138 133 129 127 127 128 129 131 132 132 133 134 135 134 135 135 134 133 131 129 128 128 127 127 127 127 127 129 130 131 132 132 132 131 130
359 11 37 61 89 117 133 142 147 149 150 151 150 151 153 155 158 161 163 165 167 167 166 162 159 155 153 154 156 160 165 170 167 157 145 137 132 128 127 127 129 130 132 132 134 136 136 134 133 133 133 132 132 132 131 130 129 127 125 124 124 124 125 126 127 128 127 127 127
5 25 57 82 101 114 124 130 134 137 138 138 139 140 140 142 145 149 151 152 153 154 154 153 151 148 147 147 148 149 152 154 156 154 149 142 136 132 129 128 128 129 130 132 135 137 136 133 132 131 131 131 131 131 130 129 128 125 123 122 121 120 120 120 121 121 121 121 122
17 56 90 104 110 113 117 122 124 125 125 126 127 128 130 131 134 137 139 139 140 140 141 141 140 139 138 138 138 139 140 141 143 144 145 143 140 136 133 132 130 130 131 134 139 141 141 137 134 132 132 131 130 128 127 126 124 123 122 121 120 118 117 116 116 116 116 117 118
67 95 102 106 108 111 115 118 118 119 119 119 120 121 122 123 125 127 128 128 128 129 129 129 130 131 131 131 131 131 132 132 133 135 137 139 139 138 137 134 133 131 133 136 141 145 146 145 141 138 135 133 130 128 126 125 124 123 123 122 121 119 116 115 114 114 113 113 114
92 99 98 101 105 110 113 114 115 116 116 116 117 117 118 119 120 122 122 122 121 120 121 121 123 124 126 127 127 128 128 127 128 129 130 131 133 135 134 133 131 131 132 135 140 145 148 148 146 143 139 135 132 130 128 126 127 127 126 125 124 122 121 118 117 115 113 112 111
100 100 99 102 106 108 109 110 111 113 113 114 114 115 115 116 118 119 120 119 118 118 118 118 118 119 121 123 124 124 124 125 125 125 125 126 126 126 126 126 127 127 129 133 140 145 149 150 149 147 143 139 136 134 131 130 130 130 129 128 127 126 125 122 121 119 117 116 115
107 109 110 110 109 108 109 110 110 111 111 112 113 113 113 114 115 116 117 118 118 117 116 114 114 116 117 117 118 119 120 121 122 122 121 121 121 120 119 118 118 119 122 126 135 143 148 150 150 149 147 143 140 137 135 133 132 131 131 129 128 127 126 124 123 122 120 119 119
117 119 117 113 109 109 110 111 111 111 112 111 111 111 112 112 112 113 114 114 114 113 110 109 111 112 111 110 110 112 113 114 115 115 114 112 111 109 109 110 110 112 114 120 128 137 144 148 149 149 147 145 141 138 136 135 134 133 132 131 131 129 127 126 125 124 122 120 119
124 122 117 112 110 110 111 113 114 114 114 112 111 111 111 110 109 109 109 109 108 107 107 107 107 106 104 104 105 104 104 104 107 108 107 104 102 101 103 106 108 111 114 119 126 133 140 145 148 148 146 145 142 139 137 138 137 136 134 133 133 132 130 129 128 126 124 122 120
128 123 118 114 112 112 114 117 118 118 117 115 114 113 111 110 108 108 107 106 106 106 108 108 105 103 102 102 101 101 100 102 103 104 103 102 101 102 103 105 108 112 117 122 127 133 140 146 149 150 149 148 145 141 140 139 139 137 135 134 134 133 132 130 129 127 125 124 121
132 128 122 118 115 116 119 121 122 123 122 120 118 115 112 110 109 108 107 107 106 106 106 105 104 102 101 100 100 100 100 101 101 102 103 103 102 102 103 105 107 112 118 125 130 136 144 151 155 156 155 153 148 144 142 140 138 136 135 134 134 134 132 130 129 128 127 126 124
137 132 127 123 121 122 122 123 125 127 127 124 121 118 115 112 111 110 109 108 107 106 105 104 103 102 100 100 100 101 101 101 102 103 104 104 102 101 101 102 106 112 119 127 132 140 150 158 161 161 160 158 152 148 144 141 138 136 134 133 133 133 133 132 130 129 128 127 126
140 135 131 127 126 125 125 125 127 129 129 126 123 121 118 116 115 114 114 114 113 111 109 108 106 104 103 103 103 102 102 102 103 103 103 101 100 99 98 99 105 112 119 125 131 141 153 163 165 164 162 159 153 148 143 141 138 135 134 133 134 134 135 134 132 130 129 129 128
143 138 134 131 130 129 128 127 128 129 129 125 123 122 121 119 118 118 118 119 119 117 114 113 111 109 107 106 104 103 101 100 100 99 99 99 98 97 97 100 106 113 119 124 131 141 154 163 165 165 162 157 148 142 138 136 134 133 132 133 133 134 135 136 134 131 131 132 133
145 142 139 135 133 131 131 130 129 128 126 124 122 121 120 120 120 121 123 123 121 118 116 114 112 110 108 106 105 103 101 101 100 99 99 100 100 100 101 103 107 114 120 125 131 142 154 161 164 163 159 151 142 136 132 130 128 128 128 128 129 131 133 135 134 134 133 134 136
146 144 141 138 135 134 133 132 130 128 126 125 124 123 122 121 122 124 126 125 121 118 116 115 113 111 110 108 106 104 103 103 102 101 100 100 102 103 103 106 109 115 120 125 131 142 152 158 160 159 154 145 137 131 128 126 124 124 123 123 123 125 127 129 129 129 131 134 136
148 145 143 142 139 137 135 134 131 129 128 128 127 126 125 124 124 125 127 127 123 120 119 118 116 114 113 111 106 103 102 101 101 101 99 99 100 103 105 107 110 114 118 124 131 140 148 153 155 153 147 139 133 129 127 125 124 123 122 120 120 121 120 119 117 117 120 124 129
152 149 147 146 145 142 139 136 134 133 133 133 130 129 128 127 127 129 131 131 129 126 124 121 119 119 118 116 110 105 102 100 99 98 98 99 100 103 106 108 110 112 116 121 129 137 144 148 149 148 143 136 133 130 129 127 126 125 123 122 120 119 117 115 112 110 109 110 112
158 155 151 148 148 147 144 141 140 140 141 139 137 135 134 133 133 135 136 135 134 132 129 125 123 123 124 122 118 113 108 103 99 98 98 100 101 102 104 107 110 113 117 121 127 135 142 146 148 147 143 137 134 132 131 130 127 125 124 123 121 119 118 116 114 112 110 109 107
164 159 155 152 149 149 149 148 148 148 148 147 144 143 142 142 142 141 140 138 138 136 133 129 127 127 126 125 122 119 113 108 103 100 99 100 99 98 99 104 109 114 118 122 126 135 143 149 152 151 147 141 137 134 133 132 130 127 126 126 125 122 120 118 117 116 117 117 115